[[{"header":{"parameterUnit":"m.s-1","parameterCategory":1,"la1":30.2991,"la2":30.254,"lo1":-89.0895,"lo2":-89.0444,"dy":0.0017,"dx":0.0017,"nx":28,"ny":28,"refTime":"2023-07-29T09:00:00:Z","depth":0,"parameterNumber":2,"parameterNumberName":"U-component_of_WINDS"},"data":[0,0,0,0,0,0,0,0,0,0,0,0,0,0,0,0,0,0,0,0,0,0,0,0,0,0,0,0,0,0,0,0,0,0,0,0,0,0,0,0,0,0,0,0,0,0,0,0,0,0,0,0,0,0,0,0,0,0,1.657,1.6571,0,1.6632,1.6632,1.6633,1.6614,1.6613,1.6611,1.661,1.6678,1.6681,1.6684,0,0,0,0,0,0,0,0,0,0,0,0,0,1.6439,1.6442,1.657,1.6571,1.6572,1.6632,1.6633,1.6633,1.6614,1.6612,1.6611,1.6609,1.6677,1.6681,1.6684,0,0,0,0,0,0,0,0,0,0,0,0,0,1.6498,1.6443,1.657,1.6569,1.657,1.6631,1.6633,1.6634,1.6614,1.6612,1.661,1.6609,1.6676,1.668,1.6685,1.6753,0,0,1.6699,1.6701,0,0,0,0,0,0,0,0,1.6495,1.6503,1.6568,1.6569,1.657,1.6613,1.6611,1.6674,1.6615,1.6598,1.661,1.6608,1.6658,1.6664,1.668,1.6756,1.6759,1.6699,1.6702,1.6704,1.6705,0,0,0,0,0,0,0,1.6491,1.65,1.6595,1.6569,1.657,1.6567,1.6573,1.6623,1.6639,1.6599,1.6598,1.6605,1.6658,1.6676,1.6682,1.676,1.6699,1.6703,1.6706,1.6708,1.6893,1.6895,0,0,0,0,0,0,1.6486,1.6497,1.6593,1.6596,1.6527,1.6571,1.6578,1.6601,1.6638,1.6641,1.6607,1.6604,1.6669,1.6676,1.6684,1.6764,1.6704,1.6708,1.6711,1.6891,1.6894,1.6896,0,0,0,0,0,0,1.6483,1.6494,1.659,1.6546,1.6558,1.6575,1.6602,1.6604,1.6621,1.6644,1.6647,1.6621,1.6668,1.6678,1.6735,1.6767,1.671,1.6714,1.6888,1.6892,1.6895,1.6927,0,0,0,0,0,0,1.6479,1.6494,1.6518,1.6547,1.6561,1.6639,1.6604,1.6606,1.6628,1.6625,1.6658,1.6662,1.6667,1.6728,1.674,1.6772,1.6718,1.6886,1.689,1.6894,1.6923,1.6931,1.6937,0,0,0,0,0,1.6475,1.6526,1.652,1.6531,1.6592,1.6641,1.6649,1.6652,1.6631,1.6657,1.6671,1.6661,1.6762,1.6734,1.6747,1.6781,1.6884,1.6889,1.6893,1.692,1.6929,1.6937,0,0,0,0,0,0,1.6503,1.653,1.6523,1.6585,1.6611,1.6637,1.667,1.6662,1.6695,1.6691,1.6696,1.6704,1.6762,1.6778,1.6747,1.6848,1.682,1.6827,1.6835,1.6845,1.6852,1.6846,1.6722,0,0,0,0,0,1.6516,1.6552,1.6574,1.6627,1.664,1.6653,1.6674,1.6675,1.6702,1.6713,1.6732,1.6759,1.6797,1.6822,1.6858,1.6926,1.6932,1.6955,1.6963,1.6968,1.6975,1.701,1.702,1.6912,1.6912,1.6912,0,0,1.6544,1.6563,1.6586,1.6633,1.6653,1.6691,1.6662,1.6704,1.6732,1.672,1.6774,1.6789,1.6821,1.6883,1.6911,1.6897,1.7006,1.6975,1.6979,1.6982,1.7016,1.7026,1.7036,1.6915,1.6915,1.6914,0,0,1.6613,1.6632,1.6677,1.6697,1.6727,1.6735,1.6746,1.6774,1.6782,1.6837,1.6828,1.6863,1.6928,1.695,1.6971,1.7049,1.704,1.7061,1.7098,1.7133,1.7141,1.7149,1.7175,1.7185,1.7067,1.7067,1.7067,0,1.6645,1.67,1.6702,1.6744,1.6765,1.6754,1.68,1.682,1.686,1.6876,1.686,1.694,1.6961,1.7028,1.7046,1.7064,1.7076,1.7056,1.7139,1.7147,1.7154,1.7179,1.7189,1.7069,1.7069,1.7069,1.7069,0,1.6736,1.6775,1.6808,1.6845,1.687,1.6914,1.6924,1.6949,1.6948,1.6958,1.7014,1.7038,1.7078,1.7095,1.7095,1.7161,1.7152,1.7138,1.7109,1.7166,1.719,1.72,1.7072,1.7072,1.7071,1.707,0,0,1.6824,1.6861,1.6873,1.6889,1.6921,1.6952,1.6996,1.7033,1.7055,1.7084,1.712,1.7176,1.7163,1.7185,1.7188,1.7219,1.7277,1.7201,1.7202,1.7213,1.7351,1.736,1.7371,1.7272,1.7274,1.7276,1.7348,0,1.6894,1.6969,1.6972,1.7041,1.7076,1.7067,1.7105,1.7129,1.714,1.7173,1.7186,1.7224,1.7205,1.7218,1.7249,1.7263,1.7305,1.7259,1.7307,1.7308,1.7297,1.7383,1.7393,1.7459,1.7357,1.7359,1.736,0,1.6986,1.7016,1.7087,1.7113,1.7128,1.7162,1.7196,1.7228,1.7256,1.7262,1.7287,1.7285,1.7331,1.7302,1.7365,1.7333,1.7353,1.7364,1.7367,1.737,1.7336,1.7387,1.7481,1.749,1.7375,1.7374,1.7373,0,1.704,1.7099,1.7148,1.7163,1.7195,1.7219,1.7234,1.726,1.7282,1.7313,1.7327,1.7364,1.7384,1.7413,1.7422,1.74,1.7484,1.7456,1.749,1.749,1.7507,1.7505,1.7603,1.7523,1.7523,1.7523,1.7523,0,1.7118,1.7161,1.7173,1.7203,1.7252,1.7256,1.7305,1.7319,1.7342,1.7375,1.7371,1.7403,1.7413,1.7447,1.7455,1.7505,1.7515,1.7521,1.7522,1.752,1.7519,1.7532,1.7527,1.7525,1.7525,1.7524,1.7524,0,1.7186,1.7195,1.7248,1.7274,1.7282,1.7317,1.7339,1.7369,1.738,1.7422,1.7433,1.745,1.7489,1.7501,1.755,1.7555,1.7613,1.7611,1.7603,1.7603,1.7635,1.7631,1.7744,1.7758,1.767,1.7671,1.7672,0,1.7233,1.7266,1.7295,1.7316,1.7331,1.7367,1.7389,1.7395,1.7419,1.7453,1.7478,1.7517,1.7549,1.7613,1.763,1.7668,1.7665,1.7702,1.7671,1.7668,1.7664,1.7661,1.7664,1.7707,1.7708,1.7709,1.771,0,1.7316,1.7318,1.735,1.7383,1.7409,1.7436,1.7462,1.7481,1.7491,1.7518,1.7557,1.7581,1.763,1.7669,1.7706,1.7723,1.7718,1.772,1.7729,1.7727,1.772,1.7722,1.7617,1.7717,1.7716,1.7715,1.7715,1.7715,1.7373,1.7402,1.7426,1.7461,1.7481,1.7505,1.7534,1.7548,1.7581,1.7619,1.7622,1.7665,1.7692,1.7742,1.7761,1.7795,1.7784,1.7799,1.7802,1.7805,1.7807,1.7716,1.7802,1.7802,1.7802,1.7802,1.7802,0,1.7454,1.7469,1.7501,1.7537,1.7565,1.7557,1.7585,1.7609,1.7646,1.7672,1.7702,1.7748,1.7786,1.7806,1.7844,1.7867,1.7866,1.7877,1.7874,1.7878,1.7815,1.7802,1.7877,1.7877,1.7877,1.7877,1.7877,1.7877,1.7499,1.7546,1.7552,1.7609,1.7625,1.7665,1.7682,1.7705,1.7725,1.7775,1.7806,1.7819,1.7842,1.7882,1.7916,1.7921,1.7935,1.7947,1.795,1.7891,1.7883,1.7875,1.7863,1.795,1.795,1.801,1.8011,1.8011]},{"header":{"parameterUnit":"m.s-1","parameterCategory":1,"la1":30.2991,"la2":30.254,"lo1":-89.0895,"lo2":-89.0444,"dy":0.0017,"dx":0.0017,"nx":28,"ny":28,"refTime":"2023-07-29T09:00:00:Z","depth":0,"parameterNumber":3,"parameterNumberName":"V-component_of_WINDS"},"data":[0,0,0,0,0,0,0,0,0,0,0,0,0,0,0,0,0,0,0,0,0,0,0,0,0,0,0,0,0,0,0,0,0,0,0,0,0,0,0,0,0,0,0,0,0,0,0,0,0,0,0,0,0,0,0,0,0,0,3.7965,3.7965,0,3.7997,3.7998,3.7998,3.7965,3.7964,3.7962,3.7961,3.7989,3.7991,3.7993,0,0,0,0,0,0,0,0,0,0,0,0,0,3.7867,3.7869,3.7965,3.7965,3.7965,3.7997,3.7998,3.7998,3.7965,3.7964,3.7962,3.7961,3.7989,3.7991,3.7993,0,0,0,0,0,0,0,0,0,0,0,0,0,3.7906,3.787,3.7964,3.7953,3.7952,3.7997,3.7998,3.7998,3.7966,3.7964,3.7962,3.796,3.7988,3.7991,3.7994,3.805,0,0,3.8003,3.8004,0,0,0,0,0,0,0,0,3.7903,3.7909,3.7954,3.7954,3.7953,3.7975,3.7974,3.8016,3.7966,3.796,3.7961,3.7959,3.7986,3.7989,3.7999,3.8052,3.8053,3.8003,3.8005,3.8006,3.8007,0,0,0,0,0,0,0,3.7901,3.7908,3.7977,3.7955,3.7954,3.7944,3.7947,3.7982,3.7983,3.7961,3.7958,3.7963,3.7985,3.7996,3.8,3.8053,3.8003,3.8006,3.8007,3.8008,3.8153,3.8155,0,0,0,0,0,0,3.79,3.7906,3.7976,3.7978,3.7923,3.7947,3.7951,3.797,3.7983,3.7983,3.7965,3.7961,3.7992,3.7996,3.8,3.8067,3.8006,3.8009,3.801,3.8151,3.8153,3.8156,0,0,0,0,0,0,3.7898,3.7907,3.7975,3.7941,3.7949,3.7951,3.7973,3.7972,3.7983,3.7986,3.7985,3.7976,3.7991,3.7996,3.8038,3.8067,3.801,3.8013,3.8148,3.8152,3.8154,3.8201,0,0,0,0,0,0,3.7896,3.7906,3.7929,3.7942,3.7951,3.8014,3.7974,3.7974,3.7989,3.7985,3.7997,3.7997,3.799,3.8034,3.8041,3.807,3.8015,3.8146,3.815,3.8153,3.8197,3.8205,3.8213,0,0,0,0,0,3.7892,3.794,3.7931,3.7939,3.798,3.8016,3.8021,3.8014,3.7991,3.8013,3.8015,3.7996,3.8063,3.8039,3.8046,3.8077,3.8144,3.8149,3.8153,3.8193,3.8204,3.8212,0,0,0,0,0,0,3.7928,3.7941,3.7931,3.7985,3.8,3.801,3.8038,3.8025,3.8045,3.804,3.8029,3.8032,3.8076,3.8081,3.8053,3.8132,3.81,3.8106,3.8127,3.8137,3.8145,3.8143,3.8017,0,0,0,0,0,3.7943,3.7973,3.7982,3.8028,3.8037,3.8036,3.8051,3.8045,3.8059,3.8064,3.8069,3.8082,3.8106,3.8122,3.8144,3.8197,3.8199,3.8222,3.823,3.8236,3.8242,3.8269,3.828,3.8171,3.8171,3.8171,0,0,3.7973,3.7984,3.8003,3.8036,3.8047,3.8076,3.8042,3.8074,3.8095,3.8069,3.8109,3.8113,3.8127,3.8175,3.8196,3.818,3.8272,3.8242,3.8247,3.8249,3.8275,3.8286,3.8295,3.8174,3.8174,3.8173,0,0,3.8042,3.8054,3.8093,3.8105,3.8123,3.8122,3.8132,3.8145,3.8147,3.8188,3.8168,3.8192,3.8234,3.8244,3.8255,3.8328,3.8311,3.8335,3.8376,3.8403,3.8412,3.8419,3.8444,3.8454,3.8341,3.8341,3.8341,0,3.8076,3.8121,3.8115,3.8149,3.8164,3.8143,3.8182,3.8193,3.8216,3.8226,3.8208,3.826,3.8267,3.8317,3.8335,3.8345,3.8354,3.8334,3.8411,3.8419,3.8426,3.845,3.8459,3.8344,3.8343,3.8343,3.8343,0,3.8162,3.8194,3.8223,3.8248,3.8266,3.8302,3.83,3.8318,3.831,3.8311,3.8352,3.836,3.8384,3.8395,3.8387,3.8443,3.8433,3.8413,3.838,3.8439,3.8461,3.847,3.8348,3.8347,3.8346,3.8345,0,0,3.8254,3.8276,3.8286,3.8297,3.8315,3.8338,3.8373,3.8398,3.8414,3.843,3.8458,3.8494,3.8476,3.8488,3.848,3.8504,3.8561,3.8482,3.8482,3.8496,3.8623,3.8637,3.8648,3.855,3.8552,3.8553,3.8622,0,3.8323,3.8386,3.8381,3.8439,3.8468,3.8449,3.8479,3.8492,3.8494,3.8516,3.8517,3.8543,3.8518,3.8525,3.8548,3.8549,3.8586,3.8544,3.8574,3.8576,3.8571,3.866,3.8675,3.8739,3.863,3.8632,3.8633,0,3.8412,3.8433,3.8495,3.8509,3.852,3.8548,3.857,3.8593,3.8607,3.8606,3.862,3.8608,3.8642,3.8609,3.8654,3.8625,3.8637,3.864,3.8642,3.8644,3.8607,3.8663,3.8759,3.8769,3.8647,3.8646,3.8645,0,3.8472,3.8516,3.8559,3.8569,3.8586,3.8605,3.8613,3.8625,3.864,3.8659,3.8668,3.869,3.8701,3.8718,3.8712,3.8689,3.8757,3.8724,3.8757,3.8757,3.8771,3.877,3.887,3.878,3.878,3.878,3.878,0,3.8549,3.8587,3.8586,3.8612,3.8654,3.8648,3.8689,3.8693,3.8705,3.873,3.8714,3.8738,3.8729,3.8752,3.8747,3.8784,3.879,3.8789,3.8787,3.879,3.879,3.8797,3.8792,3.8782,3.8782,3.8781,3.8781,0,3.8622,3.8624,3.8669,3.8682,3.8686,3.8716,3.8726,3.875,3.8751,3.8783,3.879,3.8791,3.8817,3.8813,3.8841,3.8837,3.8884,3.8877,3.888,3.8878,3.8911,3.8908,3.9018,3.9032,3.8934,3.8934,3.8935,0,3.8671,3.87,3.8717,3.8734,3.8744,3.8771,3.8787,3.8781,3.8798,3.8816,3.8838,3.8863,3.8882,3.8924,3.8926,3.8948,3.894,3.8978,3.8943,3.8946,3.894,3.8938,3.8941,3.8984,3.8985,3.8986,3.8987,0,3.8757,3.8757,3.8781,3.8806,3.8826,3.8845,3.8862,3.8876,3.8871,3.8891,3.8918,3.8934,3.8964,3.8988,3.9008,3.9014,3.8999,3.8998,3.9006,3.9009,3.901,3.901,3.8898,3.8995,3.8994,3.8994,3.8993,3.8993,3.8819,3.8844,3.8861,3.8888,3.8901,3.8917,3.894,3.8945,3.8968,3.8993,3.8988,3.9019,3.9031,3.9057,3.9065,3.9088,3.9074,3.9087,3.909,3.9093,3.9097,3.9007,3.9092,3.9092,3.9091,3.9091,3.9091,0,3.8904,3.8914,3.8939,3.8965,3.8986,3.8973,3.8991,3.9009,3.9037,3.9051,3.9072,3.9103,3.9127,3.9131,3.9153,3.9171,3.9164,3.9176,3.9175,3.9176,3.9108,3.9098,3.9181,3.9181,3.9181,3.9181,3.9181,3.9181,3.895,3.8992,3.8994,3.9041,3.905,3.9082,3.9093,3.9108,3.9119,3.9155,3.9176,3.9179,3.9189,3.9212,3.9232,3.9233,3.9241,3.9256,3.9254,3.919,3.9181,3.9172,3.9163,3.9258,3.9258,3.932,3.9321,3.9321]}]]